When you browse on this site, cookies collect data to enhance your experience and personalize the content and advertising you see.
Visit our Privacy Policy to learn more. By continuing to use the site, you agree to this use of cookies and data.
  • Em Portugal
  • Lista de países
  • Para 7 dias
  • Temperatura da água
  • Mapas de satélite
  • Mapa do tempo
  • Widgets de tempo
  • user-avatar
    Iniciar Sessão

    Previsão horária em Shusha

    Hoje, 23 Maio, Quinta-feira

    Tempo Temperatura Precipitação Vento Pressão Humidade
    00:00 +12°C° 0.1 mm 1 m/s 659 mmHg 84%
    01:00 +12°C° 0 mm 1 m/s 659 mmHg 83%
    02:00 +12°C° 0 mm 1 m/s 659 mmHg 83%
    03:00 +12°C° 0 mm 1 m/s 659 mmHg 82%
    04:00 +13°C° 0 mm 1 m/s 659 mmHg 81%
    05:00 +13°C° 0 mm 1 m/s 659 mmHg 79%
    06:00 +14°C° 0 mm 1 m/s 659 mmHg 77%
    07:00 +16°C° 0 mm 1 m/s 660 mmHg 72%
    08:00 +17°C° 0 mm 2 m/s 660 mmHg 66%
    09:00 +19°C° 0 mm 2 m/s 660 mmHg 60%
    10:00 +20°C° 0 mm 2 m/s 660 mmHg 59%
    11:00 +21°C° 0 mm 3 m/s 660 mmHg 57%
    12:00 +22°C° 0 mm 3 m/s 659 mmHg 56%
    13:00 +21°C° 0.3 mm 3 m/s 659 mmHg 58%
    14:00 +21°C° 0.3 mm 3 m/s 659 mmHg 60%
    15:00 +21°C° 0.3 mm 3 m/s 658 mmHg 63%
    16:00 +20°C° 0.4 mm 3 m/s 658 mmHg 68%
    17:00 +19°C° 0.4 mm 2 m/s 658 mmHg 73%
    18:00 +18°C° 0.4 mm 2 m/s 658 mmHg 78%
    19:00 +17°C° 0.6 mm 2 m/s 658 mmHg 82%
    20:00 +15°C° 0.6 mm 1 m/s 658 mmHg 86%
    21:00 +14°C° 0.6 mm 1 m/s 658 mmHg 89%
    22:00 +14°C° 0.2 mm 1 m/s 658 mmHg 89%
    23:00 +14°C° 0.2 mm 1 m/s 658 mmHg 89%

    Amanhã, 24 Maio, Sexta-feira

    Tempo Temperatura Precipitação Vento Pressão Humidade
    00:00 +13°C° 0.2 mm 1 m/s 658 mmHg 88%
    01:00 +13°C° 0 mm 1 m/s 658 mmHg 89%
    02:00 +13°C° 0 mm 1 m/s 658 mmHg 89%
    03:00 +12°C° 0 mm 1 m/s 658 mmHg 90%
    04:00 +13°C° 0 mm 1 m/s 659 mmHg 88%
    05:00 +14°C° 0 mm 1 m/s 659 mmHg 85%
    06:00 +15°C° 0 mm 1 m/s 659 mmHg 83%
    07:00 +16°C° 0 mm 1 m/s 660 mmHg 78%
    08:00 +17°C° 0 mm 2 m/s 660 mmHg 74%
    09:00 +18°C° 0 mm 2 m/s 660 mmHg 69%
    10:00 +19°C° 0.1 mm 2 m/s 660 mmHg 66%
    11:00 +20°C° 0.1 mm 3 m/s 660 mmHg 62%
    12:00 +21°C° 0.1 mm 3 m/s 660 mmHg 59%
    13:00 +21°C° 0.1 mm 3 m/s 660 mmHg 59%
    14:00 +22°C° 0.1 mm 3 m/s 660 mmHg 60%
    15:00 +22°C° 0.1 mm 3 m/s 660 mmHg 60%
    16:00 +21°C° 0.1 mm 2 m/s 659 mmHg 65%
    17:00 +20°C° 0.1 mm 2 m/s 659 mmHg 70%
    18:00 +19°C° 0.1 mm 2 m/s 659 mmHg 75%
    19:00 +18°C° 0.4 mm 2 m/s 659 mmHg 80%
    20:00 +16°C° 0.4 mm 2 m/s 660 mmHg 84%
    21:00 +15°C° 0.4 mm 1 m/s 660 mmHg 89%
    22:00 +15°C° 0.2 mm 1 m/s 660 mmHg 89%
    23:00 +15°C° 0.2 mm 1 m/s 660 mmHg 88%

    Depois de amanhã, 25 Maio, Sábado

    Tempo Temperatura Precipitação Vento Pressão Humidade
    00:00 +15°C° 0.2 mm 1 m/s 660 mmHg 88%
    01:00 +14°C° 0 mm 1 m/s 660 mmHg 87%
    02:00 +14°C° 0 mm 1 m/s 660 mmHg 87%
    03:00 +14°C° 0 mm 1 m/s 660 mmHg 86%
    04:00 +15°C° 0 mm 1 m/s 660 mmHg 83%
    05:00 +15°C° 0 mm 1 m/s 660 mmHg 79%
    06:00 +16°C° 0 mm 1 m/s 661 mmHg 76%
    07:00 +19°C° 0 mm 1 m/s 661 mmHg 71%
    08:00 +20°C° 0 mm 2 m/s 661 mmHg 66%
    09:00 +21°C° 0 mm 2 m/s 662 mmHg 61%
    10:00 +24°C° 0 mm 2 m/s 662 mmHg 57%
    11:00 +25°C° 0 mm 2 m/s 662 mmHg 53%
    12:00 +27°C° 0 mm 3 m/s 661 mmHg 49%
    13:00 +27°C° 0 mm 3 m/s 661 mmHg 48%
    14:00 +27°C° 0 mm 3 m/s 661 mmHg 48%
    15:00 +28°C° 0 mm 3 m/s 660 mmHg 48%
    16:00 +26°C° 0 mm 2 m/s 660 mmHg 54%
    17:00 +25°C° 0 mm 2 m/s 660 mmHg 61%
    18:00 +24°C° 0 mm 1 m/s 660 mmHg 67%
    19:00 +22°C° 0 mm 1 m/s 659 mmHg 70%
    20:00 +21°C° 0 mm 1 m/s 659 mmHg 73%
    21:00 +18°C° 0 mm 2 m/s 659 mmHg 76%
    22:00 +18°C° 0 mm 2 m/s 659 mmHg 68%
    23:00 +19°C° 0 mm 2 m/s 659 mmHg 60%

    26 Maio, Domingo

    Tempo Temperatura Precipitação Vento Pressão Humidade
    00:00 +19°C° 0 mm 2 m/s 659 mmHg 52%
    01:00 +18°C° 0 mm 2 m/s 659 mmHg 51%
    02:00 +18°C° 0 mm 2 m/s 659 mmHg 50%
    03:00 +17°C° 0 mm 2 m/s 658 mmHg 49%
    04:00 +18°C° 0 mm 2 m/s 659 mmHg 50%
    05:00 +18°C° 0 mm 2 m/s 659 mmHg 52%
    06:00 +20°C° 0 mm 1 m/s 659 mmHg 53%
    07:00 +21°C° 0 mm 2 m/s 660 mmHg 50%
    08:00 +23°C° 0 mm 2 m/s 660 mmHg 47%
    09:00 +25°C° 0 mm 2 m/s 660 mmHg 43%
    10:00 +26°C° 0 mm 2 m/s 660 mmHg 42%
    11:00 +27°C° 0 mm 3 m/s 660 mmHg 41%
    12:00 +28°C° 0 mm 3 m/s 660 mmHg 40%
    13:00 +28°C° 0 mm 3 m/s 660 mmHg 43%
    14:00 +27°C° 0 mm 3 m/s 659 mmHg 46%
    15:00 +27°C° 0 mm 3 m/s 659 mmHg 49%
    16:00 +26°C° 0.1 mm 3 m/s 659 mmHg 55%
    17:00 +24°C° 0.1 mm 3 m/s 659 mmHg 61%
    18:00 +23°C° 0.1 mm 2 m/s 659 mmHg 68%
    19:00 +20°C° 0 mm 2 m/s 659 mmHg 74%
    20:00 +19°C° 0 mm 1 m/s 659 mmHg 80%
    21:00 +16°C° 0 mm 1 m/s 659 mmHg 87%
    22:00 +16°C° 0 mm 1 m/s 659 mmHg 87%
    23:00 +16°C° 0 mm 1 m/s 659 mmHg 88%

    27 Maio, Segunda-feira

    Tempo Temperatura Precipitação Vento Pressão Humidade
    00:00 +15°C° 0 mm 1 m/s 659 mmHg 89%
    01:00 +15°C° 0 mm 1 m/s 659 mmHg 87%
    02:00 +15°C° 0 mm 1 m/s 659 mmHg 86%
    03:00 +15°C° 0 mm 1 m/s 659 mmHg 84%
    04:00 +15°C° 0 mm 1 m/s 660 mmHg 81%
    05:00 +16°C° 0 mm 1 m/s 660 mmHg 78%
    06:00 +18°C° 0 mm 1 m/s 661 mmHg 75%
    07:00 +18°C° 0 mm 2 m/s 661 mmHg 70%
    08:00 +20°C° 0 mm 2 m/s 662 mmHg 65%
    09:00 +21°C° 0 mm 2 m/s 662 mmHg 59%
    10:00 +22°C° 0 mm 3 m/s 662 mmHg 58%
    11:00 +24°C° 0 mm 3 m/s 662 mmHg 56%
    12:00 +24°C° 0 mm 3 m/s 662 mmHg 55%
    13:00 +24°C° 0.5 mm 3 m/s 662 mmHg 55%
    14:00 +24°C° 0.5 mm 3 m/s 662 mmHg 55%
    15:00 +24°C° 0.5 mm 3 m/s 662 mmHg 55%
    16:00 +24°C° 0.2 mm 3 m/s 662 mmHg 58%
    17:00 +23°C° 0.2 mm 2 m/s 662 mmHg 61%
    18:00 +21°C° 0.2 mm 2 m/s 662 mmHg 64%
    19:00 +19°C° 0.2 mm 2 m/s 662 mmHg 69%
    20:00 +19°C° 0.2 mm 1 m/s 663 mmHg 74%
    21:00 +16°C° 0.2 mm 1 m/s 663 mmHg 79%
    22:00 +16°C° 0.1 mm 1 m/s 663 mmHg 80%
    23:00 +15°C° 0.1 mm 1 m/s 663 mmHg 81%

    28 Maio, Terça-feira

    Tempo Temperatura Precipitação Vento Pressão Humidade
    00:00 +15°C° 0.1 mm 2 m/s 663 mmHg 82%
    01:00 +15°C° 0.1 mm 2 m/s 663 mmHg 81%
    02:00 +15°C° 0.1 mm 2 m/s 663 mmHg 81%
    03:00 +14°C° 0.1 mm 2 m/s 663 mmHg 80%
    04:00 +15°C° 0.2 mm 2 m/s 664 mmHg 78%
    05:00 +16°C° 0.2 mm 1 m/s 664 mmHg 76%
    06:00 +16°C° 0.2 mm 1 m/s 665 mmHg 73%
    07:00 +18°C° 0 mm 2 m/s 665 mmHg 68%
    08:00 +19°C° 0 mm 2 m/s 665 mmHg 63%
    09:00 +20°C° 0 mm 2 m/s 666 mmHg 58%
    10:00 +21°C° 0 mm 2 m/s 666 mmHg 56%
    11:00 +22°C° 0 mm 3 m/s 665 mmHg 54%
    12:00 +22°C° 0 mm 3 m/s 665 mmHg 53%
    13:00 +24°C° 0 mm 3 m/s 665 mmHg 52%
    14:00 +24°C° 0 mm 3 m/s 665 mmHg 51%
    15:00 +25°C° 0 mm 3 m/s 665 mmHg 50%
    16:00 +24°C° 0 mm 3 m/s 664 mmHg 53%
    17:00 +23°C° 0 mm 2 m/s 664 mmHg 56%
    18:00 +21°C° 0 mm 2 m/s 664 mmHg 59%
    19:00 +19°C° 0 mm 2 m/s 664 mmHg 63%
    20:00 +19°C° 0 mm 1 m/s 664 mmHg 68%
    21:00 +16°C° 0 mm 1 m/s 664 mmHg 72%
    22:00 +16°C° 0 mm 1 m/s 664 mmHg 72%
    23:00 +15°C° 0 mm 2 m/s 664 mmHg 73%
    Mostrar mais